Regional Weather Roundup
Issued by NWS

Home | Current Version | Previous Version | Graphics & Text | Print | Product List | Glossary Off
Versions: 1 2 3 4 5 6 7 8 9 10 11 12 13 14 15 16 17 18 19 20 21 22 23 24 25 26 27 28 29 30 31 32 33 34 35 36 37 38 39 40 41 42 43 44 45 46 47 48 49 50

447
ASUS43 KTOP 281408
RWRKS

WEATHER ROUNDUP FOR KANSAS
NATIONAL WEATHER SERVICE GOODLAND KS
900 AM CDT WED SEP 28 2016

NOTE:  "FAIR" INDICATES FEW OR NO CLOUDS BELOW 12,000 FEET WITH NO
SIGNIFICANT WEATHER AND/OR OBSTRUCTIONS TO VISIBILITY.

KSZ001>006-013>018-027>032-041>047-281500-
NORTHWEST KANSAS

CITY           SKY/WX    TMP DP  RH WIND       PRES   REMARKS
GOODLAND       SUNNY     54  39  57 W7        30.21R
HAYS           SUNNY     61  43  51 N12       30.13R
HILL CITY      SUNNY     59  47  64 N6        30.16R
RUSSELL        SUNNY     58  49  72 N10       30.11R
$$

KSZ061>065-074>080-084>089-281500-
SOUTHWEST KANSAS

CITY           SKY/WX    TMP DP  RH WIND       PRES   REMARKS
DODGE CITY     SUNNY     61  43  51 N6        30.13R
ELKHART          N/A     57  36  45 W8          N/A
GARDEN CITY    SUNNY     62  41  46 NE5       30.14R
GREAT BEND     SUNNY     59  45  58 N9        30.11R
LIBERAL        SUNNY     61  41  48 N10       30.15R
PRATT          SUNNY     59  47  62 N13       30.09R
$$

KSZ066>073-081>083-090>101-281500-
SOUTHEAST KANSAS

CITY           SKY/WX    TMP DP  RH WIND       PRES   REMARKS
CHANUTE        SUNNY     64  55  72 N12G20    29.98R
COFFEYVILLE    SUNNY     62  54  74 NW6       29.96R
HUTCHINSON     SUNNY     62  51  67 N13G20    30.07R
MEDICINE LODGE   N/A     62  52  69 N8        30.05R
NEWTON         SUNNY     62  51  67 N13       30.06R
PARSONS        SUNNY     63  57  81 N6        29.98R
WICHITA INTL   SUNNY     65  52  62 N12       30.04R
WICHITA JABRA  LGT RAIN  64  54  69 N10       30.03R
WICHITA MCCONL SUNNY     65  52  64 N12       30.04R
WINFIELD       SUNNY     63  56  78 N9        30.02R
$$

KSZ007>012-019>026-033>040-048>060-102>105-281500-
NORTHEAST KANSAS

CITY           SKY/WX    TMP DP  RH WIND       PRES   REMARKS
CONCORDIA      SUNNY     57  45  64 N14       30.12R
EMPORIA        SUNNY     61  48  62 N10       30.04R
LAWRENCE       SUNNY     59  48  67 N7        30.03R
MANHATTAN      SUNNY     59  48  67 NE12      30.08R
MARYSVILLE     SUNNY     54  46  76 N9        30.10R
OLATHE IND     SUNNY     58  47  66 N13       30.03R
OLATHE EXE     SUNNY     60  44  55 N10       30.02R
SALINA         SUNNY     61  50  67 N9        30.09R
TOPEKA BILLARD SUNNY     59  48  67 N8        30.05R
TOPEKA FORBES  SUNNY     60  47  61 N10       30.04R
$$




USA.gov is the U.S. government's official web portal to all federal, state and local government web resources and services.